EN

Hourly Weather Sydney

Today, 30 September, Wednesday

Time Temperature Precipitation Wind Pressure Humidity
00:00 +13°C° 0 mm 2 mps 766 mmHg 75%
01:00 +12°C° 0 mm 2 mps 765 mmHg 77%
02:00 +12°C° 0 mm 2 mps 765 mmHg 78%
03:00 +12°C° 0 mm 2 mps 764 mmHg 80%
04:00 +12°C° 0 mm 2 mps 763 mmHg 82%
05:00 +12°C° 0 mm 2 mps 763 mmHg 79%
06:00 +13°C° 0 mm 2 mps 763 mmHg 76%
07:00 +14°C° 0 mm 2 mps 763 mmHg 73%
08:00 +16°C° 0 mm 3 mps 763 mmHg 65%
09:00 +18°C° 0 mm 4 mps 763 mmHg 56%
10:00 +20°C° 0 mm 4 mps 763 mmHg 47%
11:00 +21°C° 0 mm 4 mps 762 mmHg 45%
12:00 +22°C° 0 mm 5 mps 762 mmHg 43%
13:00 +23°C° 0 mm 5 mps 761 mmHg 41%
14:00 +21°C° 0.1 mm 5 mps 761 mmHg 52%
15:00 +19°C° 0.1 mm 6 mps 760 mmHg 62%
16:00 +17°C° 0.1 mm 6 mps 760 mmHg 73%
17:00 +16°C° 0 mm 6 mps 760 mmHg 74%
18:00 +15°C° 0 mm 6 mps 760 mmHg 74%
19:00 +15°C° 0 mm 6 mps 760 mmHg 75%
20:00 +15°C° 0 mm 6 mps 760 mmHg 75%
21:00 +15°C° 0 mm 6 mps 760 mmHg 75%
22:00 +15°C° 0 mm 7 mps 760 mmHg 75%
23:00 +15°C° 0 mm 6 mps 759 mmHg 77%

Tomorrow, 1 October, Thursday

Time Temperature Precipitation Wind Pressure Humidity
00:00 +14°C° 0 mm 6 mps 759 mmHg 78%
01:00 +14°C° 0 mm 6 mps 758 mmHg 80%
02:00 +14°C° 0.4 mm 6 mps 758 mmHg 81%
03:00 +14°C° 0.4 mm 5 mps 758 mmHg 82%
04:00 +14°C° 0.4 mm 5 mps 758 mmHg 83%
05:00 +15°C° 0 mm 5 mps 759 mmHg 81%
06:00 +15°C° 0 mm 4 mps 759 mmHg 78%
07:00 +17°C° 0 mm 4 mps 760 mmHg 76%
08:00 +19°C° 0 mm 3 mps 760 mmHg 64%
09:00 +22°C° 0 mm 3 mps 760 mmHg 51%
10:00 +25°C° 0 mm 2 mps 760 mmHg 39%
11:00 +26°C° 0 mm 3 mps 760 mmHg 32%
12:00 +28°C° 0 mm 3 mps 760 mmHg 26%
13:00 +29°C° 0 mm 3 mps 760 mmHg 19%
14:00 +28°C° 0 mm 3 mps 760 mmHg 20%
15:00 +28°C° 0 mm 3 mps 760 mmHg 21%
16:00 +27°C° 0 mm 3 mps 760 mmHg 22%
17:00 +24°C° 0 mm 3 mps 761 mmHg 39%
18:00 +21°C° 0 mm 3 mps 762 mmHg 56%
19:00 +18°C° 0 mm 3 mps 763 mmHg 72%
20:00 +17°C° 0 mm 2 mps 764 mmHg 77%
21:00 +16°C° 0 mm 2 mps 764 mmHg 81%
22:00 +16°C° 0 mm 1 mps 765 mmHg 85%
23:00 +15°C° 0 mm 1 mps 765 mmHg 84%

Day after tomorrow, 2 October, Friday

Time Temperature Precipitation Wind Pressure Humidity
00:00 +15°C° 0 mm 1 mps 765 mmHg 82%
01:00 +14°C° 0 mm 1 mps 765 mmHg 81%
02:00 +13°C° 0 mm 1 mps 765 mmHg 80%
03:00 +13°C° 0 mm 2 mps 765 mmHg 80%
04:00 +13°C° 0 mm 2 mps 766 mmHg 80%
05:00 +12°C° 0 mm 3 mps 766 mmHg 74%
06:00 +13°C° 0 mm 3 mps 766 mmHg 69%
07:00 +13°C° 0 mm 3 mps 767 mmHg 63%
08:00 +18°C° 0 mm 2 mps 767 mmHg 52%
09:00 +21°C° 0 mm 2 mps 767 mmHg 40%
10:00 +25°C° 0 mm 2 mps 767 mmHg 28%
11:00 +26°C° 0 mm 2 mps 766 mmHg 24%
12:00 +28°C° 0 mm 3 mps 766 mmHg 21%
13:00 +30°C° 0 mm 3 mps 766 mmHg 17%
14:00 +30°C° 0 mm 3 mps 766 mmHg 19%
15:00 +29°C° 0 mm 4 mps 766 mmHg 20%
16:00 +29°C° 0 mm 4 mps 766 mmHg 22%
17:00 +26°C° 0 mm 4 mps 766 mmHg 32%
18:00 +23°C° 0 mm 4 mps 767 mmHg 43%
19:00 +20°C° 0 mm 4 mps 767 mmHg 53%
20:00 +19°C° 0 mm 4 mps 768 mmHg 57%
21:00 +18°C° 0 mm 3 mps 768 mmHg 60%
22:00 +18°C° 0 mm 3 mps 768 mmHg 64%
23:00 +17°C° 0 mm 3 mps 768 mmHg 63%

3 October, Saturday

Time Temperature Precipitation Wind Pressure Humidity
00:00 +17°C° 0 mm 2 mps 768 mmHg 63%
01:00 +16°C° 0 mm 2 mps 767 mmHg 63%
02:00 +16°C° 0 mm 2 mps 767 mmHg 63%
03:00 +15°C° 0 mm 2 mps 767 mmHg 62%
04:00 +15°C° 0 mm 2 mps 768 mmHg 62%
05:00 +16°C° 0 mm 2 mps 768 mmHg 59%
06:00 +17°C° 0 mm 2 mps 768 mmHg 56%
07:00 +17°C° 0 mm 2 mps 768 mmHg 52%
08:00 +21°C° 0 mm 2 mps 768 mmHg 44%
09:00 +25°C° 0 mm 3 mps 768 mmHg 35%
10:00 +28°C° 0 mm 3 mps 768 mmHg 26%
11:00 +29°C° 0 mm 4 mps 767 mmHg 24%
12:00 +32°C° 0 mm 5 mps 767 mmHg 22%
13:00 +33°C° 0 mm 6 mps 766 mmHg 19%
14:00 +32°C° 0 mm 6 mps 765 mmHg 25%
15:00 +29°C° 0 mm 7 mps 765 mmHg 30%
16:00 +28°C° 0 mm 7 mps 764 mmHg 36%
17:00 +26°C° 0 mm 7 mps 765 mmHg 44%
18:00 +23°C° 0 mm 7 mps 765 mmHg 52%
19:00 +22°C° 0 mm 7 mps 766 mmHg 60%
20:00 +21°C° 0 mm 6 mps 766 mmHg 61%
21:00 +20°C° 0 mm 5 mps 766 mmHg 62%
22:00 +20°C° 0 mm 4 mps 766 mmHg 64%
23:00 +19°C° 0 mm 3 mps 766 mmHg 64%

4 October, Sunday

Time Temperature Precipitation Wind Pressure Humidity
00:00 +19°C° 0 mm 3 mps 765 mmHg 64%
01:00 +18°C° 0 mm 2 mps 765 mmHg 64%
02:00 +18°C° 0 mm 2 mps 765 mmHg 66%
03:00 +18°C° 0 mm 2 mps 765 mmHg 68%
04:00 +17°C° 0 mm 2 mps 765 mmHg 70%
05:00 +18°C° 0 mm 2 mps 765 mmHg 68%
06:00 +19°C° 0 mm 2 mps 765 mmHg 66%
07:00 +20°C° 0 mm 3 mps 765 mmHg 63%
08:00 +24°C° 0 mm 3 mps 765 mmHg 53%
09:00 +27°C° 0 mm 4 mps 765 mmHg 43%
10:00 +30°C° 0 mm 4 mps 764 mmHg 33%
11:00 +33°C° 0 mm 5 mps 764 mmHg 29%
12:00 +34°C° 0 mm 5 mps 763 mmHg 25%
13:00 +36°C° 0 mm 6 mps 763 mmHg 21%
14:00 +35°C° 0 mm 6 mps 762 mmHg 23%
15:00 +34°C° 0 mm 7 mps 762 mmHg 25%
16:00 +34°C° 0 mm 7 mps 761 mmHg 27%
17:00 +32°C° 0 mm 7 mps 762 mmHg 32%
18:00 +28°C° 0 mm 6 mps 762 mmHg 38%
19:00 +26°C° 0 mm 5 mps 762 mmHg 43%
20:00 +25°C° 0 mm 5 mps 762 mmHg 46%
21:00 +23°C° 0 mm 4 mps 763 mmHg 48%
22:00 +23°C° 0 mm 4 mps 763 mmHg 50%
23:00 +22°C° 0 mm 3 mps 763 mmHg 53%

5 October, Monday

Time Temperature Precipitation Wind Pressure Humidity
00:00 +21°C° 0 mm 3 mps 762 mmHg 56%
01:00 +20°C° 0 mm 3 mps 762 mmHg 59%
02:00 +20°C° 0 mm 3 mps 762 mmHg 59%
03:00 +19°C° 0 mm 3 mps 761 mmHg 59%
04:00 +19°C° 0 mm 4 mps 761 mmHg 59%
05:00 +20°C° 0 mm 4 mps 762 mmHg 56%
06:00 +20°C° 0 mm 4 mps 762 mmHg 52%
07:00 +21°C° 0 mm 4 mps 763 mmHg 48%
08:00 +25°C° 0 mm 4 mps 763 mmHg 41%
09:00 +28°C° 0 mm 3 mps 763 mmHg 34%
10:00 +31°C° 0 mm 3 mps 763 mmHg 27%
11:00 +33°C° 0 mm 3 mps 763 mmHg 26%
12:00 +34°C° 0 mm 4 mps 763 mmHg 24%
13:00 +35°C° 0 mm 4 mps 763 mmHg 23%
14:00 +29°C° 0 mm 6 mps 763 mmHg 39%
15:00 +24°C° 0 mm 8 mps 763 mmHg 56%
16:00 +19°C° 0 mm 10 mps 763 mmHg 72%
17:00 +18°C° 0 mm 9 mps 764 mmHg 74%
18:00 +17°C° 0 mm 9 mps 765 mmHg 75%
19:00 +16°C° 0 mm 8 mps 766 mmHg 77%
20:00 +16°C° 0.1 mm 7 mps 767 mmHg 77%
21:00 +16°C° 0.1 mm 7 mps 768 mmHg 76%
22:00 +15°C° 0.1 mm 6 mps 768 mmHg 76%
23:00 +15°C° 0 mm 6 mps 768 mmHg 76%
Show more